Regional Weather Roundup
Issued by NWS

Home | Current Version | Previous Version | Text Only | Print | Product List | Glossary On
Versions: 1 2 3 4 5 6 7 8 9 10 11 12 13 14 15 16 17 18 19 20 21 22 23 24 25 26 27 28 29 30 31 32 33 34 35 36 37 38 39 40 41 42 43 44 45 46 47 48 49 50
000
ASUS43 KLSX 010607
RWRMO

WEATHER SUMMARY FOR MISSOURI
NATIONAL WEATHER SERVICE SPRINGFIELD MO
1200 AM CST SUN MAR 01 2015

NOTE: "FAIR" INDICATES FEW OR NO CLOUDS BELOW 12,000 FEET WITH NO
       SIGNIFICANT WEATHER AND/OR OBSTRUCTIONS TO VISIBILITY.
       CURRENT SKY AND/OR WEATHER CONDITIONS ARE NOT AVAILABLE FOR
       CHILLICOTHE AND FARMINGTON.

MOZ001>031-035>038-043-044-053-054-010700-
...NORTHERN AND WESTERN MISSOURI...

CITY           SKY/WX    TMP DP  RH WIND       PRES   REMARKS
KANSAS CTY INT LGT SNOW  22  20  92 CALM      30.36F FOG
6HR MIN TEMP:  22; 6HR MAX TEMP:  23; 6HR PCP:  0.01;

KANSAS C DTWN  LGT SNOW  24  21  88 CALM      30.38S FOG
6HR MIN TEMP:  24; 6HR MAX TEMP:  24; 6HR PCP:  0.01;

LEE`S SUMMIT   LGT SNOW  22  19  89 CALM      30.35F FOG
6HR MIN TEMP:  22; 6HR MAX TEMP:  22; 6HR PCP:  0.05;

ST JOSEPH      CLOUDY    23  19  85 S3        30.39S
6HR MIN TEMP:  20; 6HR MAX TEMP:  23; 6HR PCP: TRACE;

CHILLICOTHE      N/A     23  19  85 CALM      30.40F
6HR MIN TEMP:  23; 6HR MAX TEMP:  23; 6HR PCP:  0.01;

KIRKSVILLE     CLOUDY    20  18  92 SE6       30.38F WCI  12
6HR MIN TEMP:  19; 6HR MAX TEMP:  20; 6HR PCP:  0.02;


$$
MOZ066>068-077>081-088>096-101>105-010700-
...SOUTHWEST MISSOURI...

CITY           SKY/WX    TMP DP  RH WIND       PRES   REMARKS
SPRINGFIELD    FLURRIES  27  24  89 S7        30.32S WCI  19
6HR MIN TEMP:  25; 6HR MAX TEMP:  27; 6HR PCP:  0.05;

JOPLIN         CLOUDY    27  25  92 SE5       30.34F FOG     WCI  22
6HR MIN TEMP:  25; 6HR MAX TEMP:  27; 6HR PCP:  0.04;


$$
MOZ032>034-039>042-045>050-055>058-069>072-010700-
...CENTRAL MISSOURI...

CITY           SKY/WX    TMP DP  RH WIND       PRES   REMARKS
COLUMBIA       LGT SNOW  23  21  92 SE5       30.37F FOG     WCI  17
6HR MIN TEMP:  23; 6HR MAX TEMP:  23; 6HR PCP:  0.14;

JEFFERSON CITY CLOUDY    25  22  88 E3        30.39F FOG
6HR MIN TEMP:  24; 6HR MAX TEMP:  25; 6HR PCP: TRACE;

ROLLA          CLOUDY    24  21  88 E5        30.33F FOG     WCI  18
6HR MIN TEMP:  23; 6HR MAX TEMP:  24; 6HR PCP:  0.10;

SEDALIA        LGT SNOW  24  21  88 NE3       30.37F FOG
6HR MIN TEMP:  24; 6HR MAX TEMP:  24; 6HR PCP:  0.15;

WHITEMAN AFB   LGT SNOW  23  20  91 SE3       30.35F FOG
WARRENSBURG    LGT SNOW  23  21  93 CALM      30.37S
OSAGE BEACH    CLOUDY    25  21  86 CALM      30.35F

$$
MOZ051-052-059>065-010700-
...EAST CENTRAL MISSOURI...

CITY           SKY/WX    TMP DP  RH WIND       PRES   REMARKS
ST LOUIS INTL  LGT SNOW  25  22  88 E5        30.41F VSB 3/4 WCI  19
6HR MIN TEMP:  25; 6HR MAX TEMP:  26; 6HR PCP:  0.17;

SPIRIT OF STL  LGT SNOW  25  23  92 CALM      30.41F FOG
6HR MIN TEMP:  24; 6HR MAX TEMP:  25; 6HR PCP:  0.12;

ST CHARLES     LGT SNOW  24  22  91 E5        30.42F VSB 1   WCI  18
6HR MIN TEMP:  23; 6HR MAX TEMP:  24; 6HR PCP: TRACE;


$$
MOZ072>076-082>087-097>100-106>115-010700-
...SOUTH CENTRAL AND SOUTHEAST MISSOURI...

CITY           SKY/WX    TMP DP  RH WIND       PRES   REMARKS
CAPE GIRARDEAU CLOUDY    31  23  72 N3        30.42F
6HR MIN TEMP:  31; 6HR MAX TEMP:  33;

FARMINGTON     CLOUDY    27  25  93 S10       30.39F WCI  17
6HR MIN TEMP:  25; 6HR MAX TEMP:  27; 6HR PCP:  0.17;

POPLAR BLUFF   FRZ RAIN  30  23  75 N7        30.41F WCI  23
6HR MIN TEMP:  29; 6HR MAX TEMP:  30; 6HR PCP:  0.02;

WEST PLAINS    FRZ RAIN  26  24  92 E3        30.36F FOG
6HR MIN TEMP:  24; 6HR MAX TEMP:  26; 6HR PCP:  0.14;


$$



USA.gov is the U.S. government's official web portal to all federal, state and local government web resources and services.